Location: Cussy
(47.0410°N, 4.6412°E)
Time: 14:43:05
(UTC+00:00)

ARGOS - Pass Details

Date: 30 November 2020
Orbit: 820 x 834 km, 98.4° (Epoch: 27 January)

Event Time Altitude Azimuth Distance (km) Brightness Sun altitude
Exits shadow 18:27:15 36° 13° (NNE) 1,287 3.9 -25.3°
Drops below altitude 10° 18:30:36 10° 354° (N) 2,444 5.6 -25.9°
Sets 18:33:00 0° 350° (N) 3,379 6.4 -26.3°
